This is the latest recevied weather packets stored in our database for station/object W8RSN-13. If no packets are shown the sender has not sent any weather packets the latest 10 day(s).
| Time | Temp. | Humidity | Pressure | Rain* | Wind** | Luminosity | Snow |
|---|---|---|---|---|---|---|---|
| 1788435267 | 15° C | 71% | 1016.3 hPa | - | - | - | - |
| 1788434966 | 15° C | 71% | 1016.4 hPa | - | - | - | - |
| 1788434665 | 15.56° C | 71% | 1016.6 hPa | - | - | - | - |
| 1788434364 | 15.56° C | 70% | 1016.5 hPa | - | - | - | - |
| 1788434063 | 15.56° C | 67% | 1016.4 hPa | - | - | - | - |
| 1788433763 | 15.56° C | 67% | 1016.4 hPa | - | - | - | - |
| 1788433462 | 15.56° C | 68% | 1016.4 hPa | - | - | - | - |
| 1788433161 | 15.56° C | 69% | 1016.5 hPa | - | - | - | - |
| 1788432860 | 15.56° C | 71% | 1016.7 hPa | - | - | - | - |
| 1788432559 | 15.56° C | 70% | 1016.6 hPa | - | - | - | - |
| 1788432258 | 15° C | 70% | 1016.6 hPa | - | - | - | - |
| 1788431957 | 15° C | 74% | 1016.7 hPa | - | - | - | - |
| 1788431656 | 15.56° C | 74% | 1016.8 hPa | - | - | - | - |
| 1788431355 | 15.56° C | 75% | 1016.5 hPa | - | - | - | - |
| 1788431075 | 15.56° C | 74% | 1016.7 hPa | - | - | - | - |
| 1788430773 | 15.56° C | 73% | 1016.6 hPa | - | - | - | - |
| 1788430473 | 16.11° C | 72% | 1016.8 hPa | - | - | - | - |
| 1788430172 | 16.11° C | 73% | 1016.6 hPa | - | - | - | - |
| 1788429871 | 16.11° C | 72% | 1016.7 hPa | - | - | - | - |
| 1788429570 | 16.11° C | 72% | 1016.6 hPa | - | - | - | - |
| 1788429269 | 15.56° C | 73% | 1016.8 hPa | - | - | - | - |
| 1788428968 | 16.11° C | 73% | 1016.9 hPa | - | - | - | - |
| 1788428667 | 16.11° C | 72% | 1016.9 hPa | - | - | - | - |
| 1788428367 | 16.11° C | 71% | 1016.8 hPa | - | - | - | - |
| 1788428066 | 16.11° C | 70% | 1016.8 hPa | - | - | - | - |
* Rain since midnight (hover to see other rain measurements)
** Current wind speed in m/s (hover to see current wind gust speed)